[[{"header":{"parameterUnit":"m.s-1","parameterCategory":1,"la1":30.2991,"la2":30.254,"lo1":-89.0895,"lo2":-89.0444,"dy":0.0017,"dx":0.0017,"nx":28,"ny":28,"refTime":"2023-07-19T03:00:00:Z","depth":0,"parameterNumber":2,"parameterNumberName":"U-component_of_WINDS"},"data":[0,0,0,0,0,0,0,0,0,0,0,0,0,0,0,0,0,0,0,0,0,0,0,0,0,0,0,0,0,0,0,0,0,0,0,0,0,0,0,0,0,0,0,0,0,0,0,0,0,0,0,0,0,0,0,0,0,0,2.0868,2.0868,0,2.0838,2.0838,2.0838,2.0749,2.0747,2.0745,2.0743,2.0715,2.0716,2.0717,0,0,0,0,0,0,0,0,0,0,0,0,0,2.0847,2.0848,2.0868,2.0868,2.0867,2.0838,2.0838,2.0838,2.0749,2.0747,2.0744,2.0742,2.0714,2.0716,2.0717,0,0,0,0,0,0,0,0,0,0,0,0,0,2.0841,2.0849,2.0868,2.0819,2.0815,2.0838,2.0838,2.0837,2.0749,2.0746,2.0743,2.0741,2.0714,2.0716,2.0717,2.0786,0,0,2.0722,2.0723,0,0,0,0,0,0,0,0,2.0842,2.0842,2.0827,2.0823,2.0818,2.0794,2.082,2.082,2.075,2.0774,2.0743,2.0739,2.0744,2.0743,2.0744,2.0785,2.0784,2.0722,2.0723,2.0724,2.0725,0,0,0,0,0,0,0,2.0842,2.0843,2.0856,2.0827,2.0821,2.0799,2.0795,2.082,2.0776,2.0772,2.0765,2.0763,2.0741,2.0742,2.0742,2.0783,2.0722,2.0724,2.0725,2.0725,2.0876,2.0879,0,0,0,0,0,0,2.0849,2.0844,2.0857,2.0855,2.0822,2.0802,2.0797,2.0805,2.0775,2.0768,2.0766,2.0759,2.0741,2.0741,2.0741,2.0817,2.0724,2.0726,2.0727,2.0873,2.0877,2.088,0,0,0,0,0,0,2.0849,2.0851,2.0858,2.0848,2.0847,2.0805,2.0814,2.0806,2.0807,2.0771,2.0762,2.0775,2.0739,2.0739,2.0775,2.0815,2.0726,2.0728,2.087,2.0874,2.0879,2.0972,0,0,0,0,0,0,2.0849,2.0852,2.0878,2.0849,2.0848,2.0893,2.0817,2.0807,2.081,2.0801,2.0778,2.0771,2.0736,2.0773,2.0776,2.0816,2.0729,2.0866,2.0872,2.0877,2.0965,2.0979,2.0991,0,0,0,0,0,2.0849,2.0907,2.088,2.0882,2.0879,2.0895,2.0895,2.0853,2.0814,2.0839,2.0815,2.0772,2.0811,2.0777,2.0781,2.0821,2.0863,2.087,2.0877,2.0959,2.0977,2.0991,0,0,0,0,0,0,2.0943,2.0902,2.0872,2.0922,2.0913,2.088,2.0911,2.0873,2.0875,2.0867,2.0816,2.0812,2.0854,2.0841,2.0805,2.0885,2.0829,2.0837,2.0891,2.0907,2.092,2.0922,2.073,0,0,0,0,0,2.097,2.0986,2.0949,2.0997,2.0994,2.0954,2.0959,2.0928,2.0916,2.0912,2.0891,2.0882,2.0891,2.0899,2.0906,2.0963,2.0956,2.0993,2.1006,2.1017,2.1024,2.105,2.1065,2.0903,2.0903,2.0902,0,0,2.1025,2.1005,2.1018,2.1016,2.1005,2.1022,2.0951,2.0973,2.0985,2.0916,2.0947,2.0931,2.0918,2.0964,2.0983,2.0954,2.1067,2.1025,2.1034,2.1035,2.1059,2.1074,2.1088,2.0907,2.0906,2.0906,0,0,2.1134,2.1121,2.1158,2.1148,2.1131,2.1103,2.1113,2.1085,2.1071,2.1102,2.1049,2.1063,2.1082,2.1073,2.1071,2.1174,2.1134,2.1178,2.1246,2.1273,2.1285,2.1296,2.133,2.1344,2.1186,2.1186,2.1186,0,2.1205,2.1228,2.1182,2.1206,2.1206,2.1142,2.1178,2.1171,2.1159,2.116,2.1128,2.1147,2.1134,2.1176,2.12,2.1202,2.1209,2.118,2.1287,2.1298,2.1307,2.1339,2.1353,2.1191,2.1191,2.119,2.119,0,2.1315,2.1332,2.1364,2.1351,2.1354,2.1385,2.1342,2.1351,2.1319,2.1295,2.1326,2.1307,2.1308,2.1316,2.1286,2.1353,2.1335,2.1296,2.1239,2.1329,2.1358,2.137,2.1199,2.1197,2.1195,2.1194,0,0,2.1483,2.1442,2.1455,2.1446,2.1423,2.1435,2.1462,2.1461,2.1468,2.1462,2.1482,2.1498,2.146,2.1459,2.1427,2.145,2.1529,2.1408,2.1406,2.1429,2.1599,2.1627,2.1642,2.1503,2.1505,2.1507,2.1599,0,2.1584,2.1626,2.1584,2.1635,2.1649,2.1588,2.1611,2.1598,2.1576,2.1584,2.156,2.1571,2.1522,2.152,2.1541,2.1516,2.1562,2.1509,2.152,2.1521,2.1523,2.1657,2.1687,2.1775,2.161,2.1612,2.1614,0,2.1707,2.1704,2.1755,2.1725,2.1729,2.1751,2.1745,2.1754,2.1738,2.172,2.1717,2.1677,2.1701,2.1646,2.1677,2.1641,2.1643,2.1631,2.1634,2.1632,2.1571,2.1657,2.1803,2.1815,2.1632,2.163,2.1629,0,2.1821,2.183,2.186,2.1856,2.1823,2.1838,2.1825,2.1806,2.1808,2.1803,2.1803,2.1803,2.1802,2.1802,2.1763,2.1727,2.1797,2.174,2.1782,2.1783,2.1798,2.1797,2.1944,2.1804,2.1803,2.1803,2.1803,0,2.1937,2.197,2.1911,2.193,2.1964,2.1916,2.1952,2.1933,2.1916,2.1929,2.1878,2.1892,2.184,2.1849,2.1819,2.1847,2.1848,2.1833,2.1824,2.1836,2.1838,2.1836,2.1828,2.1807,2.1806,2.1805,2.1805,0,2.207,2.2031,2.206,2.2025,2.2017,2.2044,2.2014,2.203,2.2003,2.2021,2.2023,2.1981,2.1988,2.1949,2.195,2.193,2.1972,2.1954,2.1977,2.197,2.2013,2.2009,2.2162,2.2179,2.203,2.2031,2.2033,0,2.2145,2.2168,2.2135,2.214,2.2129,2.2138,2.2138,2.2091,2.2093,2.2075,2.2093,2.2095,2.2094,2.2108,2.2078,2.2078,2.2058,2.2112,2.2057,2.2068,2.2055,2.2054,2.2055,2.2123,2.2124,2.2126,2.2127,0,2.2281,2.2261,2.2263,2.2258,2.2259,2.2253,2.2244,2.2251,2.22,2.2205,2.221,2.221,2.2208,2.2211,2.2204,2.219,2.215,2.2144,2.2153,2.2165,2.2176,2.2168,2.2005,2.2141,2.214,2.2139,2.2138,2.2137,2.2386,2.2403,2.2381,2.2384,2.2372,2.2364,2.2376,2.235,2.2353,2.2347,2.232,2.233,2.2311,2.2297,2.2287,2.2294,2.2268,2.2283,2.2286,2.2289,2.2295,2.2177,2.2293,2.2293,2.2292,2.2292,2.2292,0,2.2517,2.25,2.2503,2.249,2.2493,2.2454,2.2441,2.2445,2.2454,2.244,2.2439,2.2444,2.2446,2.2415,2.2413,2.2424,2.2405,2.2425,2.2422,2.2419,2.232,2.2311,2.2439,2.2439,2.2439,2.2439,2.2439,2.2439,2.2586,2.2611,2.2588,2.2606,2.2588,2.2596,2.2592,2.2584,2.2571,2.2579,2.2579,2.2559,2.2538,2.2533,2.2532,2.2523,2.2523,2.2549,2.2533,2.2441,2.2426,2.2413,2.2404,2.255,2.255,2.2631,2.2632,2.2633]},{"header":{"parameterUnit":"m.s-1","parameterCategory":1,"la1":30.2991,"la2":30.254,"lo1":-89.0895,"lo2":-89.0444,"dy":0.0017,"dx":0.0017,"nx":28,"ny":28,"refTime":"2023-07-19T03:00:00:Z","depth":0,"parameterNumber":3,"parameterNumberName":"V-component_of_WINDS"},"data":[0,0,0,0,0,0,0,0,0,0,0,0,0,0,0,0,0,0,0,0,0,0,0,0,0,0,0,0,0,0,0,0,0,0,0,0,0,0,0,0,0,0,0,0,0,0,0,0,0,0,0,0,0,0,0,0,0,0,4.5388,4.539,0,4.5539,4.5541,4.5543,4.5536,4.5534,4.5532,4.553,4.5676,4.5682,4.5688,0,0,0,0,0,0,0,0,0,0,0,0,0,4.5083,4.5089,4.5388,4.539,4.5392,4.5539,4.5541,4.5543,4.5537,4.5534,4.5531,4.5529,4.5675,4.5681,4.5689,0,0,0,0,0,0,0,0,0,0,0,0,0,4.5223,4.5091,4.5387,4.5406,4.541,4.5539,4.5541,4.5544,4.5537,4.5534,4.5531,4.5528,4.5672,4.5681,4.5689,4.5807,0,0,4.5716,4.572,0,0,0,0,0,0,0,0,4.5215,4.5234,4.5402,4.5405,4.5409,4.5516,4.5488,4.5632,4.5538,4.5488,4.553,4.5526,4.5625,4.5637,4.5673,4.5814,4.582,4.5717,4.5722,4.5726,4.5729,0,0,0,0,0,0,0,4.5206,4.5228,4.5447,4.5404,4.5409,4.5404,4.542,4.5515,4.5572,4.5492,4.5492,4.5511,4.5626,4.5664,4.5676,4.5822,4.5717,4.5725,4.573,4.5734,4.6065,4.6069,0,0,0,0,0,0,4.5193,4.522,4.5443,4.5452,4.5303,4.5412,4.543,4.5485,4.5571,4.5582,4.5513,4.551,4.5651,4.5666,4.5681,4.5823,4.5726,4.5734,4.574,4.6062,4.6066,4.607,0,0,0,0,0,0,4.5187,4.5213,4.5437,4.5336,4.5364,4.5421,4.5482,4.5489,4.5527,4.5587,4.5597,4.5542,4.5649,4.5669,4.5776,4.5828,4.5738,4.5746,4.6058,4.6063,4.6068,4.6109,0,0,0,0,0,0,4.5178,4.5211,4.5258,4.5337,4.537,4.5532,4.5485,4.5495,4.5543,4.554,4.5617,4.5626,4.5648,4.5763,4.5785,4.5839,4.5753,4.6053,4.606,4.6066,4.6104,4.6116,4.6126,0,0,0,0,0,4.5167,4.5263,4.5261,4.5288,4.5431,4.5535,4.5553,4.5579,4.5548,4.5594,4.5633,4.5624,4.5819,4.5774,4.5798,4.5856,4.605,4.6058,4.6066,4.6099,4.6113,4.6125,0,0,0,0,0,0,4.5186,4.5273,4.5272,4.5397,4.5459,4.5534,4.5594,4.5593,4.5663,4.5657,4.5683,4.57,4.5807,4.5842,4.579,4.5973,4.593,4.5943,4.5947,4.5961,4.5972,4.5961,4.5761,0,0,0,0,0,4.5205,4.5285,4.5356,4.5459,4.549,4.5537,4.5583,4.5598,4.5661,4.5687,4.5733,4.5793,4.5868,4.5916,4.5988,4.6109,4.6124,4.616,4.6171,4.618,4.619,4.6254,4.6271,4.6096,4.6096,4.6096,0,0,4.5244,4.5302,4.535,4.5464,4.5514,4.5593,4.5559,4.5645,4.5703,4.5699,4.5804,4.5839,4.5908,4.6022,4.6074,4.6054,4.6242,4.619,4.6196,4.6203,4.6264,4.6281,4.6295,4.6101,4.61,4.61,0,0,4.5356,4.5409,4.55,4.5551,4.5628,4.5658,4.5679,4.5755,4.5779,4.5885,4.5883,4.5951,4.608,4.6129,4.617,4.6299,4.6293,4.6322,4.6379,4.6441,4.6455,4.6467,4.6512,4.6527,4.6332,4.6333,4.6333,0,4.5395,4.5518,4.5546,4.5633,4.5682,4.5684,4.5775,4.5821,4.5916,4.5949,4.5926,4.6087,4.6133,4.6257,4.6289,4.6323,4.6346,4.6313,4.6451,4.6464,4.6476,4.6518,4.6535,4.6336,4.6335,4.6335,4.6335,0,4.556,4.5645,4.5709,4.5804,4.5859,4.5947,4.5986,4.6038,4.6047,4.6079,4.6185,4.6241,4.6324,4.6354,4.6363,4.6479,4.6464,4.6446,4.6403,4.6495,4.6535,4.6552,4.634,4.6339,4.6338,4.6337,0,0,4.5688,4.5798,4.5821,4.5863,4.5947,4.6012,4.6098,4.6182,4.6226,4.6291,4.6362,4.6471,4.6454,4.6501,4.6515,4.657,4.6666,4.6544,4.6546,4.6564,4.6796,4.6808,4.6827,4.6663,4.6666,4.6669,4.6789,0,4.5808,4.5966,4.5994,4.613,4.6207,4.621,4.6285,4.6343,4.6374,4.6442,4.6475,4.6551,4.6525,4.6553,4.6607,4.6643,4.6713,4.6635,4.6727,4.673,4.6709,4.6849,4.6863,4.6974,4.6806,4.6808,4.681,0,4.597,4.6042,4.6187,4.626,4.6293,4.636,4.6438,4.6504,4.6569,4.6587,4.664,4.6647,4.6734,4.6688,4.6806,4.6752,4.6791,4.6814,4.6819,4.6827,4.6775,4.6859,4.701,4.7026,4.6836,4.6834,4.6832,0,4.6047,4.618,4.6283,4.632,4.6408,4.6455,4.6493,4.6555,4.6603,4.667,4.67,4.6776,4.6816,4.6873,4.6899,4.6863,4.7015,4.6971,4.703,4.7029,4.7061,4.7059,4.7219,4.7088,4.7088,4.7087,4.7087,0,4.6178,4.6266,4.6319,4.6383,4.6481,4.651,4.6604,4.6641,4.6696,4.6764,4.677,4.6833,4.6864,4.6931,4.6952,4.7045,4.7064,4.7079,4.7083,4.7078,4.7076,4.7103,4.7096,4.7092,4.7091,4.709,4.7089,0,4.6281,4.632,4.6433,4.6508,4.6528,4.6597,4.6659,4.6719,4.675,4.6836,4.6857,4.6905,4.6984,4.7016,4.7112,4.7126,4.7233,4.7231,4.7212,4.7213,4.727,4.7263,4.7452,4.7477,4.7331,4.7332,4.7333,0,4.6361,4.6429,4.6511,4.6559,4.66,4.6676,4.6726,4.6756,4.6806,4.6885,4.6934,4.7014,4.7079,4.7205,4.7246,4.7319,4.7318,4.7379,4.7329,4.7321,4.7317,4.7313,4.7319,4.7388,4.739,4.7391,4.7392,0,4.6499,4.6515,4.6588,4.6668,4.6728,4.6791,4.6853,4.689,4.6929,4.6986,4.7068,4.7119,4.7218,4.7296,4.7371,4.7406,4.7405,4.7407,4.7425,4.742,4.7405,4.7412,4.7236,4.7403,4.7402,4.7401,4.74,4.74,4.6592,4.6652,4.672,4.68,4.685,4.6908,4.6968,4.7007,4.7077,4.7162,4.7175,4.7262,4.7322,4.7424,4.7462,4.7529,4.7512,4.7538,4.7544,4.7549,4.7553,4.7396,4.7542,4.7542,4.7542,4.7542,4.7541,0,4.6729,4.6773,4.6847,4.6934,4.6997,4.6993,4.706,4.7112,4.719,4.7248,4.7313,4.7406,4.7481,4.7528,4.7604,4.7647,4.7648,4.7666,4.7662,4.767,4.7563,4.7541,4.7664,4.7664,4.7664,4.7664,4.7664,4.7664,4.6808,4.6909,4.6933,4.7058,4.71,4.7188,4.7227,4.7279,4.7325,4.743,4.7494,4.7525,4.7578,4.7657,4.7725,4.7736,4.7763,4.7781,4.7791,4.7691,4.7678,4.7666,4.7644,4.7787,4.7787,4.7892,4.7893,4.7894]}]]